Location: American Medical Response
(33.3472°N, 96.5511°W)
Time: 18:52:03
(UTC+00:00)

H-2A R/B - Pass Details

Date: 09 July 2022
Orbit: 577 x 651 km, 98.5° (Epoch: 07 August)

Event Time Altitude Azimuth Distance (km) Brightness Sun altitude
Rises 03:07:13 0° 4° (N) 2,960 6.1 -16.0°
Reaches altitude 10° 03:09:30 10° 358° (N) 2,053 5.3 -16.4°
Maximum altitude 03:13:45 44° 287° (WNW) 902 3.3 -17.1°
Drops below altitude 10° 03:18:00 10° 215° (SW) 2,049 4.6 -17.7°
Sets 03:20:16 0° 209° (SSW) 2,954 5.4 -18.0°
